Change the Weather History Date:

Wednesday, March 5, 2014

  Actual Average Record
Temperature  
Mean Temperature 43 °F -  
Max Temperature 51 °F - - ()
Min Temperature 35 °F - - ()
Degree Days  
Heating Degree Days 22    
Moisture  
Dew Point 37 °F    
Average Humidity 84    
Maximum Humidity 100    
Minimum Humidity 54    
Precipitation  
Precipitation 0.00 in - - ()
Sea Level Pressure  
Sea Level Pressure 29.66 in    
Wind  
Wind Speed 3 mph ()    
Max Wind Speed 12 mph    
Max Gust Speed -    
Visibility 6.2 miles    
Events Rain    
T = Trace of Precipitation, MM = Missing Value Source: Averaged Metar Reports

Daily Weather History Graph

Daily Weather History Graph

Search for Another Location

Airport or City:

Trip Planner

Search our weather history database for the weather conditions in past years. The results will help you decide how hot, cold, wet, or windy it might be!

Date:

Astronomy

Mar. 05, 2014 Rise Set
Actual Time 7:00 AM EET 6:28 PM EET
Civil Twilight 6:33 AM EET 6:55 PM EET
Nautical Twilight 6:01 AM EET 7:27 PM EET
Astronomical Twilight 5:30 AM EET 7:58 PM EET
Moon 9:13 AM EET (3/5) 11:18 PM EET (3/5)
Length of Visible Light 12h 22m
Length of Day
11h 27m
Waxing Crescent, 20% of the Moon is Illuminated
Mar 5
Waxing Crescent
Mar 8
First Quarter
Mar 16
Full
Mar 24
Last Quarter
Mar 30
New

Hourly Weather History & Observations

Time (EET) Temp. Windchill Dew Point Humidity Pressure Visibility Wind Dir Wind Speed Gust Speed Precip Events Conditions
12:20 AM 41.0 °F - 39.2 °F 93% 29.59 in - Variable 2.3 mph - N/A   Unknown
12:50 AM 41.0 °F - 39.2 °F 93% 29.59 in - Variable 2.3 mph - N/A   Unknown
1:20 AM 39.2 °F - 39.2 °F 100% 29.59 in - Calm Calm - N/A   Unknown
1:50 AM 39.2 °F 35.9 °F 39.2 °F 100% 29.59 in - SE 4.6 mph - N/A   Unknown
2:20 AM 39.2 °F 35.9 °F 37.4 °F 93% 29.59 in - North 4.6 mph - N/A   Unknown
2:50 AM 37.4 °F 33.8 °F 35.6 °F 93% 29.59 in - North 4.6 mph - N/A   Unknown
3:20 AM 35.6 °F 31.7 °F 35.6 °F 100% 29.59 in - North 4.6 mph - N/A   Unknown
3:50 AM 37.4 °F - 35.6 °F 93% 29.59 in - Variable 2.3 mph - N/A   Unknown
4:20 AM 35.6 °F 32.8 °F 33.8 °F 93% 29.59 in - Variable 3.5 mph - N/A   Unknown
4:50 AM 35.6 °F 30.7 °F 33.8 °F 93% 29.59 in - North 5.8 mph - N/A   Unknown
5:20 AM 35.6 °F 30.7 °F 33.8 °F 93% 29.59 in - North 5.8 mph - N/A   Unknown
5:50 AM 35.6 °F 30.7 °F 33.8 °F 93% 29.59 in - NNE 5.8 mph - N/A   Unknown
6:20 AM 35.6 °F 30.7 °F 32.0 °F 87% 29.59 in - NNE 5.8 mph - N/A   Unknown
6:50 AM 35.6 °F 30.7 °F 32.0 °F 87% 29.62 in 6.2 mi NNW 5.8 mph - N/A   Scattered Clouds
7:50 AM 39.2 °F - 35.6 °F 87% 29.62 in 6.2 mi Calm Calm - N/A   Mostly Cloudy
8:50 AM 42.8 °F - 37.4 °F 81% 29.65 in 6.2 mi Calm Calm - N/A   Mostly Cloudy
9:50 AM 46.4 °F 43.5 °F 41.0 °F 81% 29.65 in 6.2 mi SE 5.8 mph - N/A   Scattered Clouds
10:50 AM 50.0 °F - 35.6 °F 58% 29.65 in 6.2 mi SSE 8.1 mph - N/A   Scattered Clouds
11:50 AM 50.0 °F - 35.6 °F 58% 29.65 in 6.2 mi Calm Calm - N/A   Mostly Cloudy
12:50 PM 51.8 °F - 35.6 °F 54% 29.65 in 6.2 mi SSE 6.9 mph - N/A   Scattered Clouds
1:50 PM 51.8 °F - 37.4 °F 58% 29.62 in 6.2 mi SE 4.6 mph - N/A   Scattered Clouds
2:50 PM 51.8 °F - 35.6 °F 54% 29.62 in 6.2 mi SSE 5.8 mph - N/A   Mostly Cloudy
3:50 PM 50.0 °F - 39.2 °F 66% 29.65 in 6.2 mi ESE 11.5 mph - N/A   Mostly Cloudy
4:50 PM 50.0 °F - 35.6 °F 58% 29.65 in 6.2 mi East 6.9 mph - N/A   Mostly Cloudy
5:50 PM 48.2 °F - 37.4 °F 66% 29.68 in 6.2 mi East 4.6 mph - N/A   Mostly Cloudy
6:50 PM 44.6 °F 40.7 °F 39.2 °F 81% 29.71 in 6.2 mi WNW 6.9 mph - N/A Rain Light Rain
7:50 PM 42.8 °F - 41.0 °F 93% 29.74 in 6.2 mi Calm Calm - N/A   Overcast
8:20 PM 42.8 °F 41.1 °F 39.2 °F 87% 29.74 in - Variable 3.5 mph - N/A   Unknown
8:50 PM 42.8 °F 41.1 °F 39.2 °F 87% 29.74 in - Variable 3.5 mph - N/A   Unknown
9:20 PM 42.8 °F - 39.2 °F 87% 29.77 in - Variable 1.2 mph - N/A   Unknown
9:50 PM 39.2 °F - 37.4 °F 93% 29.77 in - Calm Calm - N/A   Unknown
10:20 PM 39.2 °F 37.0 °F 37.4 °F 93% 29.77 in - Variable 3.5 mph - N/A   Unknown
10:50 PM 39.2 °F 35.0 °F 37.4 °F 93% 29.77 in - North 5.8 mph - N/A   Unknown
11:20 PM 37.4 °F 33.8 °F 35.6 °F 93% 29.77 in - NNW 4.6 mph - N/A   Unknown
11:50 PM 39.2 °F 35.0 °F 37.4 °F 93% 29.77 in - North 5.8 mph - N/A   Unknown